THOR DELTA 1 R/B, 5106

Orbit data source: Space-Track

THOR DELTA 1 R/B, 5106 is space debris in LEO originally from a launch on Thu, 01 Apr 1971 UTC launched from the Air Force Western Test Range (AFWTR). Debris objects in space refer to the collection of defunct objects orbiting the Earth. Examples of debris include non-operational satellites, rocket bodies, and fragments generated from explosions, collisions, or faulty payload assembly.

Loading next visibility...
Identifier
5106, 1971-024B
Orbit
LEO
Country
Flag of USUS
Related business
Manufacturer
UTC
Mission
Spacecraft
Bus & Motor
FW4, Unknown motor
Mass
~40 kg wet, ~40 kg dry
Launch date (UTC)
1971-04-01 (55 years ago)
Launch vehicle
Unknown
Launch site
Air Force Western Test Range (AFWTR)
Object type
Payload
Rocket body
Debris
Shape & HBR
Unknown
Radar Cross Section
Medium (>0.1 m² and <1 m²)

Expand to show TLE details & history
Last TLE update: 9 hours ago

TLE from 9 hours ago
0 THOR DELTA 1 R/B
1 05106U 71024B   26128.26459935  .00000024  00000-0  66133-4 0  9997
2 05106  88.1638 319.6044 0044910 132.9155  40.3381 12.68911791551239
Epoch: 2026-05-08T06:21Z
TLE epoch observation values (Epoch: 2026-05-08T06:21:01.383Z)
Latitude
6.33458°
Longitude
178.04686°
Altitude
1,362.089 km
Speed
7.19 km/s
True Right ascension
09h 17m 36s
True Declination
6° 17' 60"
Sunlit
Object was in daylight at epoch
Visualization orbit readout
Latitude
Unknown
Longitude
Unknown
Altitude
Unknown
Speed
Unknown
Apparent Right ascension
Unknown
Apparent Declination
Unknown
Sunlit
N/A
Visualization observer readout
Local Sidereal Time
23:45:25
Azimuth
Unknown
Elevation
Unknown
Doppler factor
Unknown
Orbital elements
Apogee altitude
1,418.412 km
Perigee altitude
1,348.696 km
Semi-major axis
7,761.691 km
Eccentricity
0.00449
Inclination
88.1638°
RAAN
319.6044°
Arg. of periapsis
132.9155°
True anomaly
40.67265°
Mean anomaly
40.3381°
Eccentric anomaly
40.50523°
Mean motion
3.17401 °/min
Orbital period
113.42 mins
BSTAR
0.000066133
Loading maneuver chart data...
Computing Atmospheric mass density...
Loading historical data...
Loading historical data...
Loading historical data...
Loading historical data...
Loading historical data...
Loading historical data...
Loading historical data...

Documentation

Showing up to 5 results
|